Temp
13 13 15 15 15 14 14 14 14 14 14 14 15 14 14 14 14 14 15 15 15 15 15 15 15 15 15 15 15 16 16 16 16
14 13 14 15 15 15 14 14 14 14 14 14 14 14 14 14 14 15 14 15 15 15 15 15 15 15 15 15 15 15 15 15 15
14 14 14 15 16 16 15 14 14 13 13 14 14 14 14 14 14 14 14 14 15 15 14 15 15 14 15 15 15 15 15 15 15
13 14 13 13 14 14 13 13 13 13 13 13 13 13 13 13 13 13 14 14 14 14 14 14 14 14 14 14 14 14 14 15 14
13 13 13 13 13 13 13 13 13 13 13 13 13 12 12 13 13 13 14 13 13 13 14 14 14 14 14 14 14 13 14 14 14
12 12 12 12 12 12 12 12 12 12 12 12 13 12 12 11 13 13 13 13 13 13 13 13 14 14 14 14 14 13 14 14 14
11 11 11 11 11 11 11 11 11 12 12 12 12 11 11 12 12 12 13 13 13 13 13 13 13 13 14 14 14 13 13 14 14
10 10 9 10 10 10 10 11 11 12 12 12 13 12 10 11 12 12 12 12 13 13 13 13 13 13 13 13 13 13 13 13 13
9 9 10 10 10 10 10 10 11 11 12 12 12 12 12 11 11 11 11 12 12 12 12 12 12 13 13 13 12 12 13 13 13
9 10 10 10 9 9 10 10 10 11 11 10 11 11 11 11 11 11 11 11 11 11 12 12 12 12 12 12 11 11 12 12 12
9 9 9 9 9 9 9 10 9 10 10 10 10 10 10 10 10 10 10 11 11 11 11 11 11 11 11 12 12 11 12 12 12
8 8 9 9 9 9 9 9 9 9 9 9 9 9 9 10 10 10 10 10 10 10 10 11 11 11 11 11 11 11 11 11 11
8 8 8 8 8 8 9 9 7 8 7 7 7 8 7 8 9 9 9 9 9 9 9 10 10 10 10 11 10 11 11 11 11
7 7 7 8 8 8 8 8 8 7 7 7 7 7 7 7 7 8 9 9 9 9 9 9 9 9 9 10 10 10 10 10 10
6 6 6 7 7 7 7 7 6 7 7 7 7 7 6 6 6 7 8 8 8 8 8 8 8 8 8 9 9 9 9 10 10
6 6 6 6 6 6 6 6 6 6 6 6 7 7 6 6 6 6 6 6 7 7 7 7 7 7 7 8 8 8 9 9 9
6 6 6 6 6 6 5 5 5 5 5 6 6 8 6 6 5 6 5 5 5 5 5 6 6 6 6 7 7 7 7 8 8
5 5 5 5 5 5 5 5 5 4 5 5 5 5 5 6 6 5 5 5 4 5 4 4 4 5 5 6 6 6 6 7 7
4 4 4 4 4 4 4 4 4 4 4 3 4 4 4 3 5 5 5 4 4 4 5 3 3 3 4 5 5 5 6 6 6
2 2 3 3 3 3 3 2 3 2 2 3 3 2 1 2 1 1 3 4 4 4 3 2 3 3 3 4 4 4 5 5 5
Height
1558 1558 1558 1559 1559 1558 1558 1558 1558 1557 1557 1557 1557 1557 1558 1558 1558 1558 1559 1559 1560 1562 1561 1561 1562 1562 1563 1563 1563 1563 1564 1564 1564
1561 1562 1561 1560 1560 1560 1560 1561 1560 1559 1560 1560 1559 1560 1560 1560 1560 1560 1561 1563 1563 1565 1565 1564 1565 1565 1566 1566 1566 1566 1566 1566 1566
1563 1563 1563 1563 1563 1564 1564 1564 1564 1563 1562 1563 1562 1562 1562 1563 1562 1561 1563 1565 1566 1568 1567 1568 1568 1568 1568 1568 1568 1569 1569 1568 1568
1565 1564 1564 1565 1566 1566 1566 1566 1566 1565 1565 1565 1565 1566 1565 1565 1564 1565 1565 1567 1569 1568 1569 1569 1570 1571 1571 1571 1571 1571 1571 1571 1571
1567 1566 1566 1565 1567 1568 1567 1567 1566 1567 1567 1567 1568 1567 1567 1566 1565 1566 1567 1569 1570 1570 1569 1570 1571 1572 1573 1574 1574 1574 1574 1573 1573
1568 1568 1567 1567 1567 1568 1568 1568 1567 1568 1568 1569 1569 1569 1569 1568 1568 1568 1569 1570 1571 1571 1572 1572 1573 1573 1574 1575 1576 1576 1575 1575 1575
1570 1569 1569 1569 1569 1569 1569 1568 1568 1569 1570 1570 1571 1571 1571 1571 1571 1571 1572 1572 1571 1572 1573 1574 1574 1573 1575 1577 1577 1577 1576 1577 1577
1573 1573 1572 1572 1570 1571 1570 1569 1569 1570 1570 1571 1572 1572 1573 1573 1573 1573 1574 1574 1574 1573 1574 1574 1575 1575 1576 1577 1578 1578 1578 1578 1578
1570 1570 1571 1571 1573 1572 1571 1571 1571 1571 1571 1571 1572 1573 1574 1574 1575 1575 1576 1576 1576 1575 1575 1576 1577 1577 1578 1577 1578 1579 1579 1579 1579
1569 1569 1570 1571 1572 1573 1572 1572 1572 1572 1572 1573 1573 1574 1574 1574 1576 1577 1576 1577 1577 1577 1577 1577 1577 1578 1578 1578 1579 1579 1579 1579 1579
1569 1570 1571 1572 1572 1573 1573 1573 1573 1573 1573 1573 1573 1574 1574 1575 1576 1577 1577 1578 1578 1578 1578 1578 1578 1578 1578 1578 1579 1579 1579 1579 1579
1569 1570 1571 1572 1573 1574 1574 1574 1574 1574 1574 1574 1574 1574 1573 1574 1575 1576 1577 1577 1578 1578 1579 1578 1578 1579 1579 1578 1578 1577 1578 1579 1579
1569 1570 1571 1572 1574 1574 1574 1574 1575 1575 1575 1574 1575 1574 1573 1572 1574 1575 1576 1577 1578 1578 1578 1577 1578 1578 1579 1578 1577 1577 1578 1578 1578
1568 1569 1570 1571 1573 1573 1574 1575 1575 1574 1574 1575 1574 1574 1573 1573 1572 1574 1575 1576 1576 1577 1577 1577 1577 1577 1578 1578 1577 1577 1577 1577 1577
1568 1569 1569 1571 1572 1572 1573 1574 1574 1573 1573 1574 1574 1574 1573 1572 1572 1573 1574 1574 1574 1576 1577 1577 1577 1577 1576 1575 1575 1575 1575 1575 1575
1569 1569 1570 1570 1571 1571 1571 1572 1572 1571 1571 1572 1572 1572 1572 1574 1574 1573 1573 1573 1573 1575 1575 1575 1575 1575 1574 1572 1573 1573 1573 1572 1572
1568 1568 1569 1569 1570 1571 1571 1571 1571 1571 1571 1571 1573 1574 1575 1575 1573 1573 1573 1574 1574 1575 1574 1574 1573 1573 1571 1570 1571 1571 1569 1570 1569
1566 1567 1568 1569 1569 1569 1570 1570 1570 1570 1570 1570 1572 1573 1573 1572 1574 1574 1573 1573 1573 1573 1573 1573 1573 1571 1568 1569 1569 1568 1568 1567 1567
1566 1567 1567 1568 1568 1568 1568 1568 1568 1568 1568 1569 1569 1570 1571 1572 1573 1574 1571 1571 1571 1570 1572 1571 1570 1568 1566 1567 1567 1566 1566 1565 1564
1566 1567 1567 1567 1567 1567 1567 1567 1567 1567 1567 1567 1567 1568 1569 1570 1571 1570 1567 1569 1569 1569 1569 1568 1567 1565 1564 1563 1563 1562 1561 1561 1560
Wind_Speed
9 8 9 15 14 14 13 13 12 13 13 12 12 13 15 12 11 11 11 13 14 12 13 13 12 12 12 13 12 13 14 14 13
10 11 8 8 12 11 11 11 11 12 12 12 12 11 12 11 10 11 11 12 12 11 12 12 12 12 12 12 11 11 11 11 11
5 5 8 11 4 5 5 6 7 9 12 13 12 11 15 10 9 11 10 11 10 11 11 11 10 10 11 11 11 10 10 11 11
7 1 5 7 6 5 4 5 6 9 10 13 14 13 16 13 11 10 10 8 8 10 10 11 11 10 10 10 10 9 9 10 9
4 2 2 5 7 6 4 4 6 7 8 9 11 16 13 9 11 8 9 6 6 6 7 8 10 10 10 10 9 9 8 7 7
4 4 4 6 7 7 7 6 6 9 8 8 9 12 11 10 10 12 9 5 4 4 4 5 7 9 8 6 4 3 5 5 6
9 7 6 7 9 8 7 8 7 8 5 7 6 13 10 12 13 12 10 9 7 6 5 5 5 5 4 4 3 3 4 4 5
7 5 5 5 5 7 6 6 8 7 5 5 4 7 10 10 11 12 11 9 8 8 8 7 7 6 6 5 1 3 2 3 3
5 4 4 7 6 6 8 8 7 5 4 5 3 2 3 7 7 8 8 9 8 8 7 5 4 3 1 1 0 2 1 1 1
4 5 6 7 9 4 6 7 6 4 4 3 3 4 4 4 3 4 5 6 5 7 6 7 7 3 3 3 3 1 2 2 2
5 7 7 5 4 6 4 2 3 3 1 4 5 4 2 0 0 1 2 4 6 4 4 5 6 7 3 1 1 2 3 3 4
6 6 6 6 4 4 5 3 2 3 3 4 5 10 11 7 4 3 2 3 5 7 6 5 4 4 3 6 4 2 1 4 6
5 6 6 6 6 4 2 2 4 5 4 4 6 9 5 5 6 6 3 1 3 6 5 6 6 6 5 8 10 4 2 2 4
6 5 5 4 4 5 5 4 6 4 5 6 6 5 3 3 3 4 4 3 6 10 8 6 6 7 9 10 12 12 10 5 5
5 5 3 4 4 4 5 5 4 6 5 5 4 2 3 5 6 4 2 6 6 6 7 6 5 7 9 11 13 15 15 13 13
1 1 1 2 0 3 6 5 3 7 6 4 4 3 5 5 2 4 6 6 3 3 4 6 7 8 10 12 14 14 15 16 18
4 2 2 1 2 3 3 2 1 4 5 4 3 3 4 6 4 6 7 8 8 7 8 7 7 6 9 11 12 13 14 15 15
4 4 3 3 2 2 1 3 4 3 4 3 2 0 1 3 2 3 5 2 7 5 6 7 9 7 10 10 11 12 13 14 14
4 3 3 3 2 2 1 1 2 2 1 2 3 4 3 1 2 3 9 10 8 10 8 5 6 9 10 12 11 14 15 16 16
4 2 2 1 1 0 1 1 1 2 2 1 2 4 4 6 5 9 13 12 12 10 9 6 11 15 15 16 14 16 17 18 17
Wind_Direction
107 116 90 73 67 52 57 61 64 73 76 85 97 102 97 95 93 96 103 107 111 104 101 95 88 83 84 87 88 90 88 90 90
98 89 110 53 58 48 45 52 62 70 74 75 88 101 93 89 94 103 97 103 107 102 97 92 86 82 82 81 80 83 87 88 89
147 97 88 109 91 69 76 46 73 75 72 74 79 94 85 77 81 92 105 102 103 100 94 85 83 83 75 73 73 76 81 85 87
105 158 28 69 86 99 101 103 87 84 76 75 75 84 71 72 79 84 109 119 129 109 93 93 88 78 68 65 65 66 73 82 78
138 163 32 49 81 109 119 113 108 98 85 78 76 66 68 70 77 88 98 119 134 148 144 104 99 85 68 56 61 73 61 69 70
105 78 50 62 74 91 116 128 128 111 90 86 79 73 61 65 74 78 77 104 118 134 117 140 121 94 69 37 26 57 55 65 69
52 53 46 50 76 91 104 120 143 129 97 90 98 76 63 62 66 64 70 77 89 103 118 137 130 99 118 72 74 49 55 55 60
63 52 50 47 91 94 97 107 104 110 124 117 122 94 71 67 66 62 60 69 87 91 99 103 104 100 119 129 122 353 45 68 69
128 187 139 127 76 85 98 101 111 122 145 132 176 140 109 84 69 61 56 58 63 79 98 99 113 125 76 57 243 317 45 17 34
125 114 126 142 139 126 95 90 98 128 100 88 93 101 105 99 90 66 41 37 44 58 68 68 66 86 97 87 340 7 347 332 327
135 139 134 119 147 122 120 132 91 91 98 23 339 319 338 242 176 38 13 357 336 351 12 38 51 57 56 79 90 354 329 324 322
155 151 150 136 167 170 140 107 57 21 7 343 335 316 301 274 269 260 267 318 321 317 318 333 351 8 355 53 163 187 349 334 324
168 174 176 164 182 200 184 254 18 55 25 17 348 313 334 287 265 256 252 360 316 308 322 315 311 313 309 306 323 10 85 30 322
138 159 176 179 189 200 256 276 276 309 296 353 346 351 319 28 320 261 258 257 269 284 298 305 311 311 303 296 296 307 305 313 294
109 115 147 201 220 219 216 238 256 262 289 346 344 348 36 41 29 27 231 250 256 268 279 294 320 314 309 303 298 295 295 290 289
271 268 157 102 162 252 259 257 303 305 311 354 24 331 68 38 45 67 55 54 32 322 312 318 318 321 305 293 300 301 296 294 288
217 218 190 235 266 278 311 305 277 337 347 11 57 157 116 47 52 66 73 87 56 38 19 2 345 337 307 306 311 308 304 298 295
196 199 209 207 208 230 251 253 274 303 329 9 102 359 285 18 127 74 21 309 33 16 44 358 352 308 298 304 307 309 312 311 308
189 191 195 209 219 228 233 266 254 246 254 210 173 191 258 210 278 178 294 292 317 335 333 356 282 287 294 300 308 305 303 303 302
160 159 145 142 112 45 62 36 11 26 36 13 216 229 236 238 255 281 273 277 307 322 359 317 285 288 302 301 306 306 305 302 302